Location: Zapote
(9.9191°N, 84.0597°W)
Time: 16:49:59
(UTC-06:00)

Transit 2A - Pass Details

Date: 01 March 2021
Orbit: 602 x 957 km, 66.7° (Epoch: 16 April)

Event Time Altitude Azimuth Distance (km) Brightness Sun altitude
Rises 17:55:41 0° 219° (SW) 3,545 10.2 -3.0°
Reaches altitude 10° 17:58:32 10° 228° (SW) 2,561 9.7 -3.7°
Maximum altitude 18:03:47 32° 291° (WNW) 1,401 8.2 -5.0°
Drops below altitude 10° 18:08:38 10° 353° (N) 2,356 8.6 -6.2°
Sets 18:11:10 0° 4° (N) 3,223 9.1 -6.8°
